Location: Mary A Oil Field
(38.5606°N, 98.9545°W)
Time: 09:32:35
(UTC+00:00)

Cosmos 1048 Rocket - Pass Details

Date: 20 January 2020
Orbit: 744 x 791 km, 74.0° (Epoch: 17 February)

Event Time Altitude Azimuth Distance (km) Brightness Sun altitude
Rises 00:41:01 0° 340° (NNW) 3,202 7.3 -11.4°
Reaches altitude 10° 00:43:23 10° 340° (NNW) 2,270 6.5 -11.9°
Maximum altitude 00:48:32 83° 253° (WSW) 755 4.0 -12.8°
Drops below altitude 10° 00:53:37 10° 166° (SSE) 2,250 6.4 -13.8°
Sets 00:55:58 0° 166° (SSE) 3,171 7.2 -14.2°
